Time,TemperatureF,DewpointF,PressureIn,WindDirection,WindDirectionDegrees,WindSpeedMPH,WindSpeedGustMPH,Humidity,HourlyPrecipIn,Conditions,Clouds,dailyrainin,SoftwareType,DateUTC
2013-09-22 00:01:00,67.3,66.0,29.66,SSE,167,2.0,10.1,96,0.05,,,0.05,meteobridge,2013-09-22 04:01:00,
2013-09-22 00:02:00,67.3,66.0,29.67,SE,140,2.0,6.9,96,0.07,,,0.07,meteobridge,2013-09-22 04:02:00,
2013-09-22 00:06:00,67.3,66.0,29.66,SW,221,4.9,8.1,96,0.11,,,0.11,meteobridge,2013-09-22 04:06:00,
2013-09-22 00:12:00,67.3,66.4,29.66,SSW,211,4.9,6.9,97,0.21,,,0.21,meteobridge,2013-09-22 04:12:00,
2013-09-22 00:17:00,67.3,66.4,29.66,SSW,194,6.9,8.1,97,0.30,,,0.30,meteobridge,2013-09-22 04:17:00,
2013-09-22 00:22:00,67.3,66.4,29.66,SSE,153,2.0,4.0,97,0.42,,,0.42,meteobridge,2013-09-22 04:22:00,
2013-09-22 00:23:00,67.3,66.4,29.66,South,177,8.9,8.9,97,0.46,,,0.46,meteobridge,2013-09-22 04:23:00,
2013-09-22 00:29:00,67.3,66.4,29.66,SW,228,2.0,6.9,97,0.63,,,0.63,meteobridge,2013-09-22 04:29:00,
2013-09-22 00:34:00,67.1,66.2,29.66,South,182,2.0,6.9,97,0.83,,,0.83,meteobridge,2013-09-22 04:34:00,
2013-09-22 00:39:00,66.9,66.0,29.65,South,172,2.0,8.1,97,0.93,,,0.93,meteobridge,2013-09-22 04:39:00,
2013-09-22 00:45:00,66.9,66.0,29.65,SSE,156,0.9,4.9,97,1.09,,,1.09,meteobridge,2013-09-22 04:45:00,
2013-09-22 00:50:00,66.9,66.0,29.65,SSE,167,2.0,13.0,97,1.18,,,1.19,meteobridge,2013-09-22 04:50:00,
2013-09-22 00:56:00,66.9,66.0,29.65,NW,321,4.0,4.0,97,1.24,,,1.27,meteobridge,2013-09-22 04:56:00,
2013-09-22 01:01:00,66.7,65.8,29.67,West,267,0.9,2.9,97,1.33,,,1.38,meteobridge,2013-09-22 05:01:00,
2013-09-22 01:06:00,66.6,65.1,29.67,North,5,4.9,8.9,95,1.34,,,1.45,meteobridge,2013-09-22 05:06:00,
2013-09-22 01:11:00,65.7,63.5,29.68,West,274,0.9,6.0,93,1.48,,,1.67,meteobridge,2013-09-22 05:11:00,
2013-09-22 01:16:00,64.8,62.6,29.67,WNW,286,0.9,2.9,93,1.71,,,2.01,meteobridge,2013-09-22 05:16:00,
2013-09-22 01:21:00,64.2,62.4,29.68,South,189,0.9,0.9,94,1.94,,,2.35,meteobridge,2013-09-22 05:21:00,
2013-09-22 01:27:00,63.7,62.2,29.68,WNW,292,0.0,4.0,95,1.99,,,2.57,meteobridge,2013-09-22 05:27:00,
2013-09-22 01:32:00,63.3,61.9,29.67,WNW,285,0.9,4.0,95,2.01,,,2.75,meteobridge,2013-09-22 05:32:00,
2013-09-22 01:37:00,63.0,61.9,29.67,SW,226,2.0,2.0,96,2.02,,,2.91,meteobridge,2013-09-22 05:37:00,
2013-09-22 01:43:00,62.8,61.7,29.67,West,271,2.9,4.0,96,1.99,,,3.02,meteobridge,2013-09-22 05:43:00,
2013-09-22 01:48:00,62.4,61.3,29.66,NE,41,0.0,0.9,96,1.93,,,3.09,meteobridge,2013-09-22 05:48:00,
2013-09-22 01:53:00,62.2,61.2,29.66,WNW,285,0.0,0.9,96,1.94,,,3.17,meteobridge,2013-09-22 05:53:00,
2013-09-22 01:59:00,62.2,61.3,29.66,WSW,257,0.0,0.0,97,1.90,,,3.25,meteobridge,2013-09-22 05:59:00,
2013-09-22 02:04:00,62.1,61.2,29.66,WSW,257,0.0,0.0,97,1.90,,,3.32,meteobridge,2013-09-22 06:04:00,
2013-09-22 02:09:00,62.1,61.2,29.67,WSW,257,0.0,0.9,97,1.82,,,3.39,meteobridge,2013-09-22 06:09:00,
2013-09-22 02:14:00,61.9,61.0,29.66,West,263,0.0,0.9,97,1.55,,,3.50,meteobridge,2013-09-22 06:14:00,
2013-09-22 02:19:00,61.9,61.0,29.66,West,263,0.0,0.0,97,1.39,,,3.65,meteobridge,2013-09-22 06:19:00,
2013-09-22 02:25:00,61.7,60.8,29.66,West,263,0.0,0.0,97,1.25,,,3.77,meteobridge,2013-09-22 06:25:00,
2013-09-22 02:30:00,61.7,60.8,29.66,West,263,0.0,0.0,97,1.15,,,3.86,meteobridge,2013-09-22 06:30:00,
2013-09-22 02:36:00,61.5,60.6,29.65,West,263,0.0,0.0,97,1.20,,,4.07,meteobridge,2013-09-22 06:36:00,
2013-09-22 02:41:00,61.5,60.6,29.66,West,263,0.0,0.0,97,1.24,,,4.24,meteobridge,2013-09-22 06:41:00,
2013-09-22 02:46:00,61.5,60.6,29.66,West,263,0.0,0.9,97,1.42,,,4.49,meteobridge,2013-09-22 06:46:00,
2013-09-22 02:52:00,61.3,60.8,29.66,West,263,0.0,0.0,98,1.51,,,4.66,meteobridge,2013-09-22 06:52:00,
2013-09-22 02:57:00,61.3,60.4,29.66,WNW,292,0.0,2.9,97,1.58,,,4.80,meteobridge,2013-09-22 06:57:00,
2013-09-22 03:02:00,61.3,60.4,29.67,West,261,0.9,2.0,97,1.70,,,4.99,meteobridge,2013-09-22 07:02:00,
2013-09-22 03:07:00,61.2,60.3,29.67,WSW,245,0.0,6.0,97,1.76,,,5.13,meteobridge,2013-09-22 07:07:00,
2013-09-22 03:12:00,61.2,60.6,29.66,WSW,245,0.0,0.0,98,1.82,,,5.27,meteobridge,2013-09-22 07:12:00,
2013-09-22 03:18:00,61.2,60.6,29.65,WSW,245,0.0,0.0,98,1.76,,,5.37,meteobridge,2013-09-22 07:18:00,
2013-09-22 03:23:00,61.0,60.4,29.65,WSW,245,0.0,0.0,98,1.71,,,5.44,meteobridge,2013-09-22 07:23:00,
2013-09-22 03:28:00,61.0,60.4,29.65,WSW,245,0.0,0.9,98,1.67,,,5.50,meteobridge,2013-09-22 07:28:00,
2013-09-22 03:33:00,61.0,60.4,29.65,SSW,202,0.0,2.0,98,1.59,,,5.57,meteobridge,2013-09-22 07:33:00,
2013-09-22 03:39:00,60.8,60.3,29.65,SSW,202,0.0,0.0,98,1.49,,,5.64,meteobridge,2013-09-22 07:39:00,
2013-09-22 03:44:00,60.8,60.3,29.65,SW,236,0.9,0.9,98,1.31,,,5.68,meteobridge,2013-09-22 07:44:00,
2013-09-22 03:49:00,60.8,60.3,29.66,WNW,284,0.0,2.0,98,1.12,,,5.71,meteobridge,2013-09-22 07:49:00,
2013-09-22 03:55:00,60.8,60.3,29.67,West,271,0.9,2.0,98,1.00,,,5.74,meteobridge,2013-09-22 07:55:00,
2013-09-22 04:00:00,60.8,60.3,29.67,West,271,0.0,0.9,98,0.83,,,5.76,meteobridge,2013-09-22 08:00:00,
2013-09-22 04:05:00,60.6,60.1,29.67,WSW,255,0.0,2.0,98,0.68,,,5.77,meteobridge,2013-09-22 08:05:00,
2013-09-22 04:10:00,60.6,60.1,29.65,South,171,0.0,2.0,98,0.56,,,5.78,meteobridge,2013-09-22 08:10:00,
2013-09-22 04:15:00,60.6,60.1,29.67,West,272,0.0,2.0,98,0.45,,,5.79,meteobridge,2013-09-22 08:15:00,
2013-09-22 04:21:00,60.6,60.1,29.67,WNW,283,2.0,2.0,98,0.38,,,5.79,meteobridge,2013-09-22 08:21:00,
2013-09-22 04:26:00,60.6,60.1,29.66,West,274,0.9,2.0,98,0.33,,,5.80,meteobridge,2013-09-22 08:26:00,
2013-09-22 04:31:00,60.4,59.9,29.66,SSE,156,0.0,0.9,98,0.26,,,5.80,meteobridge,2013-09-22 08:31:00,
2013-09-22 04:36:00,60.4,59.9,29.67,SW,234,0.0,0.9,98,0.19,,,5.80,meteobridge,2013-09-22 08:36:00,
2013-09-22 04:42:00,60.4,59.9,29.66,WNW,283,2.0,2.9,98,0.14,,,5.81,meteobridge,2013-09-22 08:42:00,
2013-09-22 04:47:00,60.4,59.9,29.66,West,263,0.0,0.0,98,0.11,,,5.81,meteobridge,2013-09-22 08:47:00,
2013-09-22 04:52:00,60.4,59.9,29.67,WSW,251,0.0,2.0,98,0.09,,,5.82,meteobridge,2013-09-22 08:52:00,
2013-09-22 04:57:00,60.4,59.9,29.67,WSW,258,0.0,2.0,98,0.09,,,5.84,meteobridge,2013-09-22 08:57:00,
2013-09-22 05:03:00,60.3,59.7,29.66,NW,315,0.0,0.0,98,0.08,,,5.85,meteobridge,2013-09-22 09:03:00,
2013-09-22 05:08:00,60.3,59.7,29.67,NW,315,0.0,0.9,98,0.08,,,5.86,meteobridge,2013-09-22 09:08:00,
2013-09-22 05:14:00,60.3,59.7,29.67,NW,315,0.0,0.9,98,0.08,,,5.87,meteobridge,2013-09-22 09:14:00,
2013-09-22 05:19:00,60.3,59.7,29.67,NW,315,0.0,0.9,98,0.08,,,5.87,meteobridge,2013-09-22 09:19:00,
2013-09-22 05:24:00,60.3,59.7,29.67,West,269,0.9,0.9,98,0.08,,,5.87,meteobridge,2013-09-22 09:24:00,
2013-09-22 05:30:00,60.3,59.7,29.68,West,269,0.0,0.9,98,0.08,,,5.88,meteobridge,2013-09-22 09:30:00,
2013-09-22 05:35:00,60.3,59.7,29.68,West,269,0.0,0.0,98,0.08,,,5.88,meteobridge,2013-09-22 09:35:00,
2013-09-22 05:40:00,60.3,59.7,29.69,West,269,0.0,0.0,98,0.07,,,5.88,meteobridge,2013-09-22 09:40:00,
2013-09-22 05:45:00,60.3,59.7,29.69,West,269,0.0,0.0,98,0.08,,,5.89,meteobridge,2013-09-22 09:45:00,
2013-09-22 05:51:00,60.3,59.7,29.69,West,269,0.0,0.0,98,0.07,,,5.89,meteobridge,2013-09-22 09:51:00,
2013-09-22 05:56:00,60.1,59.5,29.69,West,277,0.0,0.0,98,0.07,,,5.90,meteobridge,2013-09-22 09:56:00,
2013-09-22 06:02:00,60.1,59.5,29.69,West,277,0.0,0.0,98,0.05,,,5.90,meteobridge,2013-09-22 10:02:00,
2013-09-22 06:07:00,60.1,59.5,29.69,West,277,0.0,0.0,98,0.05,,,5.91,meteobridge,2013-09-22 10:07:00,
2013-09-22 06:12:00,60.1,59.5,29.69,West,277,0.0,0.0,98,0.05,,,5.91,meteobridge,2013-09-22 10:12:00,
2013-09-22 06:17:00,60.1,59.5,29.69,West,277,0.0,0.0,98,0.05,,,5.92,meteobridge,2013-09-22 10:17:00,
2013-09-22 06:23:00,60.1,59.5,29.69,West,277,0.0,0.0,98,0.05,,,5.92,meteobridge,2013-09-22 10:23:00,
2013-09-22 06:28:00,60.1,59.5,29.69,West,277,0.0,0.0,98,0.04,,,5.92,meteobridge,2013-09-22 10:28:00,
2013-09-22 06:33:00,60.1,59.5,29.69,West,277,0.0,0.0,98,0.05,,,5.93,meteobridge,2013-09-22 10:33:00,
2013-09-22 06:38:00,60.1,59.5,29.70,West,277,0.0,0.0,98,0.05,,,5.93,meteobridge,2013-09-22 10:38:00,
2013-09-22 06:44:00,60.1,59.5,29.70,West,277,0.0,0.0,98,0.05,,,5.93,meteobridge,2013-09-22 10:44:00,
2013-09-22 06:49:00,60.1,59.5,29.70,West,277,0.0,0.9,98,0.04,,,5.93,meteobridge,2013-09-22 10:49:00,
2013-09-22 06:55:00,60.1,59.5,29.69,West,277,0.0,0.0,98,0.04,,,5.93,meteobridge,2013-09-22 10:55:00,
2013-09-22 07:04:00,59.7,59.2,29.70,West,275,0.0,0.0,98,0.02,,,5.93,meteobridge,2013-09-22 11:04:00,
2013-09-22 07:09:00,59.7,59.2,29.70,West,275,0.0,0.9,98,0.03,,,5.94,meteobridge,2013-09-22 11:09:00,
2013-09-22 07:15:00,59.7,59.2,29.70,West,275,0.0,0.0,98,0.03,,,5.94,meteobridge,2013-09-22 11:15:00,
2013-09-22 07:20:00,59.7,59.2,29.70,West,278,0.0,0.9,98,0.02,,,5.94,meteobridge,2013-09-22 11:20:00,
2013-09-22 07:25:00,59.7,59.2,29.70,West,278,0.0,0.9,98,0.02,,,5.94,meteobridge,2013-09-22 11:25:00,
2013-09-22 07:31:00,59.7,59.2,29.70,West,279,0.0,0.0,98,0.01,,,5.94,meteobridge,2013-09-22 11:31:00,
2013-09-22 07:36:00,59.5,59.0,29.70,WSW,243,0.0,4.0,98,0.01,,,5.94,meteobridge,2013-09-22 11:36:00,
2013-09-22 07:41:00,59.5,59.0,29.71,WNW,287,0.0,2.9,98,0.01,,,5.94,meteobridge,2013-09-22 11:41:00,
2013-09-22 07:46:00,59.5,59.0,29.71,West,273,0.0,2.0,98,0.01,,,5.94,meteobridge,2013-09-22 11:46:00,
2013-09-22 07:52:00,59.4,58.8,29.71,West,269,0.9,4.9,98,0.01,,,5.94,meteobridge,2013-09-22 11:52:00,
2013-09-22 07:57:00,59.4,58.8,29.71,WSW,253,0.9,4.9,98,0.01,,,5.94,meteobridge,2013-09-22 11:57:00,
2013-09-22 08:02:00,59.4,58.8,29.72,WNW,295,0.0,4.9,98,0.01,,,5.94,meteobridge,2013-09-22 12:02:00,
2013-09-22 08:07:00,59.4,58.8,29.72,WSW,257,2.0,4.9,98,0.01,,,5.95,meteobridge,2013-09-22 12:07:00,
2013-09-22 08:13:00,59.4,58.8,29.72,West,259,0.0,4.0,98,0.01,,,5.95,meteobridge,2013-09-22 12:13:00,
2013-09-22 08:18:00,59.4,58.8,29.72,West,273,2.0,4.0,98,0.01,,,5.95,meteobridge,2013-09-22 12:18:00,
2013-09-22 08:23:00,59.4,58.8,29.72,West,262,2.0,4.0,98,0.01,,,5.95,meteobridge,2013-09-22 12:23:00,
2013-09-22 08:28:00,59.4,58.8,29.72,West,269,0.0,2.9,98,0.01,,,5.95,meteobridge,2013-09-22 12:28:00,
2013-09-22 08:34:00,59.5,59.0,29.72,NW,325,0.0,4.0,98,0.01,,,5.95,meteobridge,2013-09-22 12:34:00,
2013-09-22 08:40:00,59.5,59.0,29.72,NNW,344,0.0,6.9,98,0.01,,,5.95,meteobridge,2013-09-22 12:40:00,
2013-09-22 08:45:00,59.7,59.2,29.72,West,262,2.9,4.9,98,0.01,,,5.95,meteobridge,2013-09-22 12:45:00,
2013-09-22 08:51:00,59.5,58.6,29.72,WSW,240,0.0,10.1,97,0.01,,,5.95,meteobridge,2013-09-22 12:51:00,
2013-09-22 08:56:00,59.5,58.6,29.73,NW,310,2.0,4.0,97,0.01,,,5.95,meteobridge,2013-09-22 12:56:00,
2013-09-22 09:02:00,59.7,58.8,29.72,WNW,286,2.9,4.9,97,0.01,,,5.95,meteobridge,2013-09-22 13:02:00,
2013-09-22 09:07:00,59.7,58.3,29.73,North,350,2.0,4.9,95,0.00,,,5.95,meteobridge,2013-09-22 13:07:00,
2013-09-22 09:12:00,59.7,57.9,29.73,NE,38,0.9,2.9,94,0.00,,,5.95,meteobridge,2013-09-22 13:12:00,
2013-09-22 09:18:00,59.5,58.1,29.74,WSW,243,0.9,8.9,95,0.00,,,5.95,meteobridge,2013-09-22 13:18:00,
2013-09-22 09:23:00,59.5,57.6,29.73,NE,34,0.9,2.9,93,0.00,,,5.95,meteobridge,2013-09-22 13:23:00,
2013-09-22 09:28:00,59.5,57.7,29.73,NW,317,0.0,4.9,94,0.00,,,5.95,meteobridge,2013-09-22 13:28:00,
2013-09-22 09:34:00,59.7,57.4,29.73,NW,324,0.9,8.1,92,0.00,,,5.95,meteobridge,2013-09-22 13:34:00,
2013-09-22 09:39:00,59.7,57.4,29.74,NNE,33,0.9,6.0,92,0.00,,,5.95,meteobridge,2013-09-22 13:39:00,
2013-09-22 09:44:00,59.7,56.8,29.74,NNW,336,2.9,8.1,90,0.00,,,5.95,meteobridge,2013-09-22 13:44:00,
2013-09-22 09:50:00,59.7,56.8,29.74,NW,307,0.9,4.9,90,0.00,,,5.95,meteobridge,2013-09-22 13:50:00,
2013-09-22 09:55:00,59.9,57.0,29.74,WNW,296,0.9,12.1,90,0.00,,,5.95,meteobridge,2013-09-22 13:55:00,
2013-09-22 10:01:00,60.1,56.5,29.74,NNE,24,0.9,4.9,88,0.00,,,5.95,meteobridge,2013-09-22 14:01:00,
2013-09-22 10:06:00,60.3,57.0,29.74,NNW,343,0.9,8.9,89,0.00,,,5.95,meteobridge,2013-09-22 14:06:00,
2013-09-22 10:11:00,60.4,56.5,29.74,NNW,327,6.9,10.1,87,0.00,,,5.95,meteobridge,2013-09-22 14:11:00,
2013-09-22 10:17:00,60.6,55.8,29.74,NW,326,4.0,6.0,84,0.00,,,5.95,meteobridge,2013-09-22 14:17:00,
2013-09-22 10:22:00,60.6,55.0,29.74,North,349,2.0,4.9,82,0.00,,,5.95,meteobridge,2013-09-22 14:22:00,
2013-09-22 10:27:00,61.0,55.8,29.74,WNW,292,0.9,8.1,83,0.00,,,5.95,meteobridge,2013-09-22 14:27:00,
2013-09-22 10:33:00,61.0,55.4,29.74,NE,34,0.0,4.0,82,0.00,,,5.95,meteobridge,2013-09-22 14:33:00,
2013-09-22 10:38:00,61.2,54.3,29.74,NNW,342,2.0,4.9,78,0.00,,,5.95,meteobridge,2013-09-22 14:38:00,
2013-09-22 10:43:00,61.2,54.0,29.74,NNE,32,0.9,6.9,77,0.00,,,5.95,meteobridge,2013-09-22 14:43:00,
2013-09-22 10:48:00,61.3,53.8,29.74,NNE,33,0.9,4.9,76,0.00,,,5.95,meteobridge,2013-09-22 14:48:00,
2013-09-22 10:54:00,61.5,54.3,29.75,WSW,257,4.9,4.9,77,0.00,,,5.95,meteobridge,2013-09-22 14:54:00,
2013-09-22 10:59:00,61.7,53.8,29.74,NW,314,0.0,4.0,75,0.00,,,5.95,meteobridge,2013-09-22 14:59:00,
2013-09-22 11:05:00,61.9,53.8,29.74,SW,236,0.9,6.0,75,0.00,,,5.95,meteobridge,2013-09-22 15:05:00,
2013-09-22 11:10:00,62.1,54.7,29.74,West,266,4.0,6.0,77,0.00,,,5.95,meteobridge,2013-09-22 15:10:00,
2013-09-22 11:15:00,62.1,54.0,29.74,NW,317,0.9,4.9,75,0.00,,,5.95,meteobridge,2013-09-22 15:15:00,
2013-09-22 11:20:00,62.2,54.1,29.74,NE,36,2.0,4.0,75,0.00,,,5.95,meteobridge,2013-09-22 15:20:00,
2013-09-22 11:26:00,62.4,54.0,29.74,WNW,296,0.0,4.0,74,0.00,,,5.95,meteobridge,2013-09-22 15:26:00,
2013-09-22 11:31:00,62.8,55.0,29.74,WNW,294,4.9,10.1,76,0.00,,,5.95,meteobridge,2013-09-22 15:31:00,
2013-09-22 11:36:00,62.8,54.3,29.74,North,5,4.0,10.1,74,0.00,,,5.95,meteobridge,2013-09-22 15:36:00,
2013-09-22 11:42:00,63.0,52.7,29.74,NW,309,2.0,8.9,69,0.00,,,5.95,meteobridge,2013-09-22 15:42:00,
2013-09-22 11:47:00,62.8,53.6,29.74,NNE,19,2.0,2.0,72,0.00,,,5.95,meteobridge,2013-09-22 15:47:00,
2013-09-22 11:52:00,62.8,52.5,29.74,SW,234,4.0,6.0,69,0.00,,,5.95,meteobridge,2013-09-22 15:52:00,
2013-09-22 11:58:00,63.0,51.4,29.75,NNE,24,2.0,10.1,66,0.00,,,5.95,meteobridge,2013-09-22 15:58:00,
2013-09-22 12:03:00,63.3,51.4,29.74,NNE,32,4.0,8.9,65,0.00,,,5.95,meteobridge,2013-09-22 16:03:00,
2013-09-22 12:08:00,63.7,52.9,29.74,NNW,333,2.0,6.0,68,0.00,,,5.95,meteobridge,2013-09-22 16:08:00,
2013-09-22 12:13:00,63.9,52.3,29.74,NE,45,4.0,6.9,66,0.00,,,5.95,meteobridge,2013-09-22 16:13:00,
2013-09-22 12:19:00,63.7,52.5,29.74,NNW,339,2.9,4.9,67,0.00,,,5.95,meteobridge,2013-09-22 16:19:00,
2013-09-22 12:24:00,63.5,52.3,29.74,NE,36,2.0,8.9,67,0.00,,,5.95,meteobridge,2013-09-22 16:24:00,
2013-09-22 12:29:00,63.1,52.0,29.75,NNW,340,0.9,2.9,67,0.00,,,5.95,meteobridge,2013-09-22 16:29:00,
2013-09-22 12:34:00,63.0,51.8,29.75,West,269,8.1,12.1,67,0.00,,,5.95,meteobridge,2013-09-22 16:34:00,
2013-09-22 12:40:00,62.8,51.3,29.75,WSW,252,0.9,2.9,66,0.00,,,5.95,meteobridge,2013-09-22 16:40:00,
2013-09-22 12:45:00,63.1,51.6,29.75,West,278,0.9,6.9,66,0.00,,,5.95,meteobridge,2013-09-22 16:45:00,
2013-09-22 12:50:00,63.1,51.6,29.75,North,10,4.9,8.9,66,0.00,,,5.95,meteobridge,2013-09-22 16:50:00,
2013-09-22 12:55:00,63.3,51.8,29.75,North,11,2.0,6.9,66,0.00,,,5.95,meteobridge,2013-09-22 16:55:00,
2013-09-22 13:01:00,63.7,52.9,29.75,North,355,4.0,4.0,68,0.00,,,5.95,meteobridge,2013-09-22 17:01:00,
2013-09-22 13:06:00,63.9,51.1,29.76,NNW,338,4.9,10.1,63,0.00,,,5.95,meteobridge,2013-09-22 17:06:00,
2013-09-22 13:11:00,63.5,51.4,29.75,WNW,296,2.0,6.9,65,0.00,,,5.95,meteobridge,2013-09-22 17:11:00,
2013-09-22 13:17:00,63.3,50.5,29.75,NW,318,4.0,4.9,63,0.00,,,5.95,meteobridge,2013-09-22 17:17:00,
2013-09-22 13:22:00,63.3,50.5,29.76,NW,321,6.9,6.9,63,0.00,,,5.95,meteobridge,2013-09-22 17:22:00,
2013-09-22 13:27:00,63.5,51.1,29.75,NW,308,2.9,10.1,64,0.00,,,5.95,meteobridge,2013-09-22 17:27:00,
2013-09-22 13:33:00,63.7,50.4,29.76,WNW,287,4.9,8.1,62,0.00,,,5.95,meteobridge,2013-09-22 17:33:00,
2013-09-22 13:38:00,63.7,50.4,29.75,WNW,299,2.0,6.0,62,0.00,,,5.95,meteobridge,2013-09-22 17:38:00,
2013-09-22 13:43:00,63.7,50.9,29.75,WSW,250,4.0,4.9,63,0.00,,,5.95,meteobridge,2013-09-22 17:43:00,
2013-09-22 13:48:00,63.7,51.3,29.75,West,265,2.0,2.9,64,0.00,,,5.95,meteobridge,2013-09-22 17:48:00,
2013-09-22 13:54:00,63.7,51.3,29.75,NW,317,2.9,4.0,64,0.00,,,5.95,meteobridge,2013-09-22 17:54:00,
2013-09-22 13:59:00,63.9,50.5,29.75,SW,221,2.9,8.9,62,0.00,,,5.95,meteobridge,2013-09-22 17:59:00,
2013-09-22 14:04:00,63.9,49.6,29.75,NW,313,0.0,4.0,60,0.00,,,5.95,meteobridge,2013-09-22 18:04:00,
2013-09-22 14:10:00,63.7,49.5,29.75,WNW,284,0.9,4.0,60,0.00,,,5.95,meteobridge,2013-09-22 18:10:00,
2013-09-22 14:15:00,63.7,49.5,29.75,North,5,4.0,6.0,60,0.00,,,5.95,meteobridge,2013-09-22 18:15:00,
2013-09-22 14:20:00,63.7,49.5,29.75,North,355,2.0,6.0,60,0.00,,,5.95,meteobridge,2013-09-22 18:20:00,
2013-09-22 14:26:00,64.2,50.5,29.75,NW,319,4.0,6.9,61,0.00,,,5.95,meteobridge,2013-09-22 18:26:00,
2013-09-22 14:31:00,64.8,49.1,29.75,WNW,298,0.0,4.0,57,0.00,,,5.95,meteobridge,2013-09-22 18:31:00,
2013-09-22 14:36:00,65.1,49.1,29.75,WNW,291,0.0,10.1,56,0.00,,,5.95,meteobridge,2013-09-22 18:36:00,
2013-09-22 14:42:00,65.1,50.4,29.75,West,277,4.9,6.0,59,0.00,,,5.95,meteobridge,2013-09-22 18:42:00,
2013-09-22 14:47:00,64.9,48.9,29.75,ENE,69,4.0,13.0,56,0.00,,,5.95,meteobridge,2013-09-22 18:47:00,
2013-09-22 14:52:00,64.4,47.8,29.75,NE,45,4.9,10.1,55,0.00,,,5.95,meteobridge,2013-09-22 18:52:00,
2013-09-22 14:58:00,64.2,50.0,29.75,NE,36,0.0,6.0,60,0.00,,,5.95,meteobridge,2013-09-22 18:58:00,
2013-09-22 15:03:00,64.2,48.7,29.75,North,5,4.0,6.9,57,0.00,,,5.95,meteobridge,2013-09-22 19:03:00,
2013-09-22 15:09:00,64.6,50.4,29.75,North,5,2.0,8.1,60,0.00,,,5.95,meteobridge,2013-09-22 19:09:00,
2013-09-22 15:14:00,64.8,49.6,29.75,NNE,28,4.9,12.1,58,0.00,,,5.95,meteobridge,2013-09-22 19:14:00,
2013-09-22 15:19:00,64.6,50.9,29.75,West,277,2.9,6.9,61,0.00,,,5.95,meteobridge,2013-09-22 19:19:00,
2013-09-22 15:24:00,64.2,48.2,29.75,SW,236,0.9,11.0,56,0.00,,,5.95,meteobridge,2013-09-22 19:24:00,
2013-09-22 15:30:00,63.9,49.3,29.75,SW,214,2.0,6.0,59,0.00,,,5.95,meteobridge,2013-09-22 19:30:00,
2013-09-22 15:35:00,64.2,48.7,29.75,NNE,26,6.9,11.0,57,0.00,,,5.95,meteobridge,2013-09-22 19:35:00,
2013-09-22 15:41:00,64.8,50.5,29.76,WNW,297,8.1,8.1,60,0.00,,,5.95,meteobridge,2013-09-22 19:41:00,
2013-09-22 15:46:00,64.6,48.6,29.76,WNW,297,2.9,10.1,56,0.00,,,5.95,meteobridge,2013-09-22 19:46:00,
2013-09-22 15:51:00,64.2,50.5,29.76,NW,309,4.0,6.0,61,0.00,,,5.95,meteobridge,2013-09-22 19:51:00,
2013-09-22 15:57:00,63.9,48.7,29.76,NNW,334,2.0,10.1,58,0.00,,,5.95,meteobridge,2013-09-22 19:57:00,
2013-09-22 16:02:00,63.7,50.0,29.76,NNE,28,0.9,2.9,61,0.00,,,5.95,meteobridge,2013-09-22 20:02:00,
2013-09-22 16:07:00,63.3,48.7,29.76,NNW,343,0.0,4.0,59,0.00,,,5.95,meteobridge,2013-09-22 20:07:00,
2013-09-22 16:13:00,63.1,48.6,29.76,NNE,24,2.0,4.0,59,0.00,,,5.95,meteobridge,2013-09-22 20:13:00,
2013-09-22 16:18:00,63.1,50.4,29.76,NE,37,0.0,0.9,63,0.00,,,5.95,meteobridge,2013-09-22 20:18:00,
2013-09-22 16:23:00,63.0,50.2,29.77,NNW,340,0.9,2.9,63,0.00,,,5.95,meteobridge,2013-09-22 20:23:00,
2013-09-22 16:29:00,62.8,49.1,29.76,North,350,2.0,6.0,61,0.00,,,5.95,meteobridge,2013-09-22 20:29:00,
2013-09-22 16:34:00,63.0,48.9,29.76,NNW,330,2.9,4.9,60,0.00,,,5.95,meteobridge,2013-09-22 20:34:00,
2013-09-22 16:39:00,63.0,48.4,29.76,NW,315,2.0,4.9,59,0.00,,,5.95,meteobridge,2013-09-22 20:39:00,
2013-09-22 16:44:00,62.8,48.7,29.77,North,355,2.9,6.9,60,0.00,,,5.95,meteobridge,2013-09-22 20:44:00,
2013-09-22 16:50:00,62.6,48.9,29.77,NE,50,8.1,8.9,61,0.00,,,5.95,meteobridge,2013-09-22 20:50:00,
2013-09-22 16:55:00,62.4,48.4,29.77,North,355,0.9,4.0,60,0.00,,,5.95,meteobridge,2013-09-22 20:55:00,
2013-09-22 17:00:00,62.4,49.6,29.77,NNW,328,2.9,2.9,63,0.00,,,5.95,meteobridge,2013-09-22 21:00:00,
2013-09-22 17:06:00,62.4,49.3,29.77,NNW,339,0.0,8.9,62,0.00,,,5.95,meteobridge,2013-09-22 21:06:00,
2013-09-22 17:11:00,62.4,48.4,29.77,West,263,0.9,4.9,60,0.00,,,5.95,meteobridge,2013-09-22 21:11:00,
2013-09-22 17:16:00,62.1,48.0,29.78,NNW,348,0.9,6.9,60,0.00,,,5.95,meteobridge,2013-09-22 21:16:00,
2013-09-22 17:21:00,62.1,48.9,29.78,NNE,12,2.0,2.9,62,0.00,,,5.95,meteobridge,2013-09-22 21:21:00,
2013-09-22 17:26:00,62.1,48.4,29.78,NW,321,2.0,4.0,61,0.00,,,5.95,meteobridge,2013-09-22 21:26:00,
2013-09-22 17:31:00,61.9,48.2,29.78,ENE,57,2.9,4.9,61,0.00,,,5.95,meteobridge,2013-09-22 21:31:00,
2013-09-22 17:37:00,61.7,48.6,29.78,NNE,12,0.9,2.9,62,0.00,,,5.95,meteobridge,2013-09-22 21:37:00,
2013-09-22 17:42:00,61.5,48.7,29.79,NW,315,2.0,4.0,63,0.00,,,5.95,meteobridge,2013-09-22 21:42:00,
2013-09-22 17:47:00,61.5,48.4,29.79,NNE,33,0.9,6.9,62,0.00,,,5.95,meteobridge,2013-09-22 21:47:00,
2013-09-22 17:53:00,61.3,47.8,29.79,North,11,2.0,6.0,61,0.00,,,5.95,meteobridge,2013-09-22 21:53:00,
2013-09-22 17:58:00,61.3,48.6,29.79,NE,53,2.9,4.0,63,0.00,,,5.95,meteobridge,2013-09-22 21:58:00,
2013-09-22 18:03:00,61.2,48.9,29.79,North,355,0.0,2.9,64,0.00,,,5.95,meteobridge,2013-09-22 22:03:00,
2013-09-22 18:09:00,61.0,48.7,29.79,NNE,17,0.0,2.9,64,0.00,,,5.95,meteobridge,2013-09-22 22:09:00,
2013-09-22 18:14:00,61.0,48.7,29.79,West,276,2.0,2.9,64,0.00,,,5.95,meteobridge,2013-09-22 22:14:00,
2013-09-22 18:19:00,61.0,48.4,29.80,North,5,4.9,11.0,63,0.00,,,5.95,meteobridge,2013-09-22 22:19:00,
2013-09-22 18:24:00,60.6,48.0,29.80,WSW,244,2.9,4.0,63,0.00,,,5.95,meteobridge,2013-09-22 22:24:00,
2013-09-22 18:29:00,60.4,47.3,29.80,WSW,254,2.0,6.0,62,0.00,,,5.95,meteobridge,2013-09-22 22:29:00,
2013-09-22 18:35:00,60.3,48.0,29.80,North,10,0.0,2.0,64,0.00,,,5.95,meteobridge,2013-09-22 22:35:00,
2013-09-22 18:40:00,59.9,48.0,29.80,North,0,0.9,4.0,65,0.00,,,5.95,meteobridge,2013-09-22 22:40:00,
2013-09-22 18:45:00,59.5,48.6,29.80,NW,319,0.9,2.9,67,0.00,,,5.95,meteobridge,2013-09-22 22:45:00,
2013-09-22 18:50:00,59.4,48.7,29.80,NW,319,0.9,0.9,68,0.00,,,5.95,meteobridge,2013-09-22 22:50:00,
2013-09-22 18:55:00,59.2,48.2,29.81,NNE,22,0.0,0.9,67,0.00,,,5.95,meteobridge,2013-09-22 22:55:00,
2013-09-22 19:00:00,58.8,49.1,29.81,NNW,334,0.0,2.9,70,0.00,,,5.95,meteobridge,2013-09-22 23:00:00,
2013-09-22 19:05:00,58.6,48.6,29.81,NNW,341,0.0,0.9,69,0.00,,,5.95,meteobridge,2013-09-22 23:05:00,
2013-09-22 19:11:00,58.3,47.8,29.82,West,275,0.0,2.0,68,0.00,,,5.95,meteobridge,2013-09-22 23:11:00,
2013-09-22 19:16:00,57.9,47.8,29.82,WNW,287,0.9,2.9,69,0.00,,,5.95,meteobridge,2013-09-22 23:16:00,
2013-09-22 19:21:00,57.7,48.0,29.82,NNE,26,0.9,2.0,70,0.00,,,5.95,meteobridge,2013-09-22 23:21:00,
2013-09-22 19:26:00,57.4,47.7,29.83,NNE,22,2.9,2.9,70,0.00,,,5.95,meteobridge,2013-09-22 23:26:00,
2013-09-22 19:31:00,57.0,47.3,29.83,North,349,0.0,0.9,70,0.00,,,5.95,meteobridge,2013-09-22 23:31:00,
2013-09-22 19:36:00,57.0,47.3,29.83,North,355,2.9,6.0,70,0.00,,,5.95,meteobridge,2013-09-22 23:36:00,
2013-09-22 19:41:00,56.8,47.5,29.83,ENE,70,0.0,2.9,71,0.00,,,5.95,meteobridge,2013-09-22 23:41:00,
2013-09-22 19:46:00,56.7,47.3,29.83,NE,38,0.0,2.0,71,0.00,,,5.95,meteobridge,2013-09-22 23:46:00,
2013-09-22 19:52:00,56.5,47.5,29.83,WNW,286,0.0,2.0,72,0.00,,,5.95,meteobridge,2013-09-22 23:52:00,
2013-09-22 19:57:00,56.3,47.5,29.84,North,355,2.0,2.0,72,0.00,,,5.95,meteobridge,2013-09-22 23:57:00,
2013-09-22 20:02:00,56.1,47.7,29.84,NNE,29,0.9,2.0,73,0.00,,,0.00,meteobridge,2013-09-23 00:02:00,
2013-09-22 20:07:00,56.1,47.7,29.84,NNE,22,0.0,2.0,73,0.00,,,0.00,meteobridge,2013-09-23 00:07:00,
2013-09-22 20:13:00,55.9,47.5,29.84,NNE,30,0.0,0.9,73,0.00,,,0.00,meteobridge,2013-09-23 00:13:00,
2013-09-22 20:18:00,55.9,47.1,29.85,NNE,33,0.9,4.0,72,0.00,,,0.00,meteobridge,2013-09-23 00:18:00,
2013-09-22 20:23:00,55.8,46.9,29.85,NNE,28,2.9,4.0,72,0.00,,,0.00,meteobridge,2013-09-23 00:23:00,
2013-09-22 20:28:00,55.8,46.6,29.85,NNE,22,2.0,2.0,71,0.00,,,0.00,meteobridge,2013-09-23 00:28:00,
2013-09-22 20:34:00,55.6,46.4,29.86,NNE,26,0.9,2.0,71,0.00,,,0.00,meteobridge,2013-09-23 00:34:00,
2013-09-22 20:39:00,55.4,46.2,29.86,WNW,287,0.9,4.0,71,0.00,,,0.00,meteobridge,2013-09-23 00:39:00,
2013-09-22 20:44:00,55.2,45.7,29.86,NW,308,0.9,4.0,70,0.00,,,0.00,meteobridge,2013-09-23 00:44:00,
2013-09-22 20:49:00,55.0,45.9,29.86,West,267,0.0,2.0,71,0.00,,,0.00,meteobridge,2013-09-23 00:49:00,
2013-09-22 20:54:00,54.9,45.3,29.86,North,9,0.9,2.0,70,0.00,,,0.00,meteobridge,2013-09-23 00:54:00,
2013-09-22 21:00:00,54.7,45.1,29.87,North,11,0.0,2.0,70,0.00,,,0.00,meteobridge,2013-09-23 01:00:00,
2013-09-22 21:05:00,54.5,45.0,29.88,NW,307,0.9,6.0,70,0.00,,,0.00,meteobridge,2013-09-23 01:05:00,
2013-09-22 21:10:00,54.3,44.8,29.87,NE,36,0.9,4.9,70,0.00,,,0.00,meteobridge,2013-09-23 01:10:00,
2013-09-22 21:15:00,54.1,45.0,29.88,NNE,31,0.9,2.9,71,0.00,,,0.00,meteobridge,2013-09-23 01:15:00,
2013-09-22 21:20:00,54.1,44.6,29.88,NNE,16,2.0,6.9,70,0.00,,,0.00,meteobridge,2013-09-23 01:20:00,
2013-09-22 21:25:00,54.0,44.1,29.88,NE,35,4.9,4.9,69,0.00,,,0.00,meteobridge,2013-09-23 01:25:00,
2013-09-22 21:31:00,54.0,44.1,29.88,NW,317,0.0,4.0,69,0.00,,,0.00,meteobridge,2013-09-23 01:31:00,
2013-09-22 21:36:00,53.8,43.9,29.88,WNW,287,0.0,4.0,69,0.00,,,0.00,meteobridge,2013-09-23 01:36:00,
2013-09-22 21:41:00,53.8,43.9,29.88,NW,321,0.9,6.9,69,0.00,,,0.00,meteobridge,2013-09-23 01:41:00,
2013-09-22 21:47:00,53.4,43.9,29.88,NNE,32,2.0,8.1,70,0.00,,,0.00,meteobridge,2013-09-23 01:47:00,
2013-09-22 21:52:00,53.2,43.3,29.89,North,355,2.9,4.0,69,0.00,,,0.00,meteobridge,2013-09-23 01:52:00,
2013-09-22 21:58:00,53.2,43.0,29.89,NW,323,0.0,2.9,68,0.00,,,0.00,meteobridge,2013-09-23 01:58:00,
2013-09-22 22:03:00,53.1,42.8,29.89,NNE,29,6.0,6.9,68,0.00,,,0.00,meteobridge,2013-09-23 02:03:00,
2013-09-22 22:08:00,53.1,42.8,29.90,NNE,17,2.0,4.9,68,0.00,,,0.00,meteobridge,2013-09-23 02:08:00,
2013-09-22 22:13:00,52.9,42.6,29.90,NNW,332,0.9,6.9,68,0.00,,,0.00,meteobridge,2013-09-23 02:13:00,
2013-09-22 22:18:00,52.9,43.0,29.90,NNW,342,0.9,4.0,69,0.00,,,0.00,meteobridge,2013-09-23 02:18:00,
2013-09-22 22:23:00,52.7,42.4,29.91,NNE,13,2.0,6.9,68,0.00,,,0.00,meteobridge,2013-09-23 02:23:00,
2013-09-22 22:28:00,52.5,42.3,29.91,North,349,2.0,6.0,68,0.00,,,0.00,meteobridge,2013-09-23 02:28:00,
2013-09-22 22:34:00,52.3,42.4,29.91,NE,53,0.9,4.0,69,0.00,,,0.00,meteobridge,2013-09-23 02:34:00,
2013-09-22 22:39:00,52.3,42.4,29.91,North,10,0.9,6.0,69,0.00,,,0.00,meteobridge,2013-09-23 02:39:00,
2013-09-22 22:45:00,52.2,42.3,29.91,North,355,0.9,4.0,69,0.00,,,0.00,meteobridge,2013-09-23 02:45:00,
2013-09-22 22:50:00,52.0,42.4,29.91,NNW,340,0.9,4.9,70,0.00,,,0.00,meteobridge,2013-09-23 02:50:00,
2013-09-22 22:55:00,52.0,42.1,29.91,NNE,26,2.0,4.0,69,0.00,,,0.00,meteobridge,2013-09-23 02:55:00,
2013-09-22 23:01:00,52.0,41.7,29.91,NE,47,2.0,8.9,68,0.00,,,0.00,meteobridge,2013-09-23 03:01:00,
2013-09-22 23:06:00,52.0,42.1,29.91,North,355,0.9,4.0,69,0.00,,,0.00,meteobridge,2013-09-23 03:06:00,
2013-09-22 23:11:00,51.8,41.9,29.91,NNE,27,4.9,4.9,69,0.00,,,0.00,meteobridge,2013-09-23 03:11:00,
2013-09-22 23:16:00,51.6,41.7,29.91,North,5,2.0,4.9,69,0.00,,,0.00,meteobridge,2013-09-23 03:16:00,
2013-09-22 23:22:00,51.6,41.7,29.91,North,5,6.0,6.9,69,0.00,,,0.00,meteobridge,2013-09-23 03:22:00,
2013-09-22 23:27:00,51.6,41.7,29.91,NNE,14,2.0,2.0,69,0.00,,,0.00,meteobridge,2013-09-23 03:27:00,
2013-09-22 23:32:00,51.6,41.4,29.91,NNE,30,2.0,4.0,68,0.00,,,0.00,meteobridge,2013-09-23 03:32:00,
2013-09-22 23:37:00,51.6,41.7,29.91,ENE,57,0.0,4.0,69,0.00,,,0.00,meteobridge,2013-09-23 03:37:00,
2013-09-22 23:43:00,51.6,41.7,29.91,NW,314,0.0,8.1,69,0.00,,,0.00,meteobridge,2013-09-23 03:43:00,
2013-09-22 23:48:00,51.4,41.5,29.91,NNE,24,0.0,4.0,69,0.00,,,0.00,meteobridge,2013-09-23 03:48:00,
2013-09-22 23:53:00,51.4,41.5,29.91,NNE,17,0.9,4.9,69,0.00,,,0.00,meteobridge,2013-09-23 03:53:00,
2013-09-22 23:59:00,51.3,41.4,29.91,NNE,13,0.9,8.9,69,0.00,,,0.00,meteobridge,2013-09-23 03:59:00,